User: anonymous   Login
Location: Moonridge Observatory
(39.2268°N, 77.7914°W)
Time: 23:17:38
(UTC-05:00)
Language:

CZ-2C R/B - Orbit

View from above orbital plane
View from above orbital plane
View from above satellite
View from above satellite

Ground track
Ground track

The orbit data is extracted from the following two-line orbital elements,

1 28480U 04046B   15027.44021631  .00000199  00000-0  91947-4 0  5395
2 28480 098.1166 171.5445 0141187 278.6523 147.6831 14.25428475530030
Epoch (UTC): 27 January 2015 10:33:54
Eccentricity: 0.0141187
inclination: 98.1166°
perigee height: 705 km
apogee height: 908 km
right ascension of ascending node: 171.5445°
argument of perigee: 278.6523°
revolutions per day: 14.25428475
mean anomaly at epoch: 147.6831°
orbit number at epoch: 53003

The dashed part of the orbit path shows where the satellite is in the earth's shadow,  

DLR